Hutchinson, MN

10:58 PM CST on December 14, 2017 (GMT -0600)
Hutchinson Municipal-Butler

Weather History for KHCD - November, 2012

Change the Weather History Date:

Wednesday, November 21, 2012

  Actual Average Record
Temperature  
Mean Temperature 50 °F -  
Max Temperature 63 °F 36 °F 64 °F (1990)
Min Temperature 36 °F 19 °F -3 °F (1964)
Degree Days  
Heating Degree Days 16    
Moisture  
Dew Point 40 °F    
Average Humidity 68    
Maximum Humidity 93    
Minimum Humidity 45    
Precipitation  
Precipitation 0.00 in - - ()
Sea Level Pressure  
Sea Level Pressure 29.85 in    
Wind  
Wind Speed 7 mph (South)    
Max Wind Speed 13 mph    
Max Gust Speed 20 mph    
Visibility 10 miles    
Events      
Averages and records for this station are not official NWS values.
T = Trace of Precipitation, MM = Missing Value Source: NWS Daily Summary

Daily Weather History Graph

Daily Weather History Graph

Search for Another Location

Airport or City:

Trip Planner

Search our weather history database for the weather conditions in past years. The results will help you decide how hot, cold, wet, or windy it might be!

Date:

Astronomy

Nov. 21, 2012 Rise Set
Actual Time 7:23 AM CST 4:43 PM CST
Civil Twilight 6:51 AM CST 5:15 PM CST
Nautical Twilight 6:15 AM CST 5:51 PM CST
Astronomical Twilight 5:40 AM CST 6:26 PM CST
Moon 1:14 PM CST (11/21) 12:27 AM CST (11/21)
Length of Visible Light 10h 24m
Length of Day
9h 19m
First Quarter, 62% of the Moon is Illuminated
Nov 21
First Quarter
Nov 28
Full
Dec 6
Last Quarter
Dec 13
New
Dec 19
First Quarter

Hourly Weather History & Observations

Time (CST) Temp. Windchill Dew Point Humidity Pressure Visibility Wind Dir Wind Speed Gust Speed Precip Events Conditions
12:08 AM 41.5 °F 37.1 °F 32.9 °F 71% 29.98 in 10.0 mi SE 6.9 mph - N/A   Clear
12:29 AM 42.1 °F 37.7 °F 33.3 °F 71% 29.97 in 10.0 mi SSE 6.9 mph - N/A   Clear
12:49 AM 43.3 °F 37.2 °F 34.0 °F 70% 29.97 in 10.0 mi South 11.5 mph 16.1 mph N/A   Clear
1:09 AM 44.1 °F 38.6 °F 34.2 °F 68% 29.96 in 10.0 mi South 10.4 mph - N/A   Clear
1:29 AM 43.9 °F 38.8 °F 34.5 °F 70% 29.96 in 10.0 mi South 9.2 mph - N/A   Clear
1:48 AM 43.2 °F 37.4 °F 34.0 °F 70% 29.95 in 10.0 mi South 10.4 mph - N/A   Clear
1:54 AM 43.3 °F 37.7 °F 34.2 °F 70% 29.94 in 10.0 mi South 10.4 mph - N/A   Clear
2:30 AM 44.6 °F 40.2 °F 35.6 °F 71% 29.94 in 10.0 mi South 8.1 mph - N/A   Clear
2:50 AM 42.8 °F 38.0 °F 35.6 °F 76% 29.94 in 10.0 mi South 8.1 mph - N/A   Clear
3:10 AM 42.8 °F 38.6 °F 35.6 °F 76% 29.94 in 10.0 mi South 6.9 mph - N/A   Clear
3:20 AM 41.5 °F 37.8 °F 34.7 °F 77% 29.94 in 10.0 mi South 5.8 mph - N/A   Clear
3:29 AM 41.5 °F 39.6 °F 34.9 °F 77% 29.94 in 10.0 mi SSW 3.5 mph - N/A   Clear
3:49 AM 41.5 °F 38.6 °F 35.1 °F 78% 29.93 in 10.0 mi South 4.6 mph - N/A   Clear
4:09 AM 40.3 °F 38.2 °F 34.7 °F 80% 29.93 in 10.0 mi South 3.5 mph - N/A   Clear
4:29 AM 40.1 °F 36.9 °F 35.1 °F 82% 29.93 in 10.0 mi South 4.6 mph - N/A   Clear
4:48 AM 39.9 °F - 34.9 °F 82% 29.93 in 10.0 mi Calm Calm - N/A   Clear
5:09 AM 39.2 °F - 34.9 °F 84% 29.93 in 10.0 mi Calm Calm - N/A   Clear
5:29 AM 39.2 °F - 35.4 °F 86% 29.93 in 10.0 mi Calm Calm - N/A   Clear
5:48 AM 36.5 °F - 34.0 °F 91% 29.94 in 10.0 mi Calm Calm - N/A   Clear
6:08 AM 36.5 °F - 34.3 °F 92% 29.94 in 10.0 mi Calm Calm - N/A   Clear
6:29 AM 36.5 °F - 33.8 °F 90% 29.94 in 10.0 mi Calm Calm - N/A   Clear
6:49 AM 36.5 °F 33.9 °F 34.2 °F 91% 29.94 in 10.0 mi SSE 3.5 mph - N/A   Clear
7:08 AM 36.3 °F 33.7 °F 34.5 °F 93% 29.94 in 10.0 mi South 3.5 mph - N/A   Clear
7:29 AM 36.5 °F 32.7 °F 34.3 °F 92% 29.94 in 10.0 mi South 4.6 mph - N/A   Clear
7:48 AM 36.5 °F 32.7 °F 34.2 °F 91% 29.94 in 10.0 mi South 4.6 mph - N/A   Clear
8:08 AM 36.5 °F 33.9 °F 34.2 °F 91% 29.94 in 10.0 mi South 3.5 mph - N/A   Clear
8:28 AM 39.2 °F - 36.5 °F 90% 29.93 in 10.0 mi Calm Calm - N/A   Clear
8:48 AM 42.6 °F 39.9 °F 38.3 °F 85% 29.94 in 10.0 mi South 4.6 mph - N/A   Clear
9:08 AM 46.2 °F 43.3 °F 39.9 °F 79% 29.94 in 10.0 mi South 5.8 mph - N/A   Clear
9:29 AM 49.1 °F - 41.5 °F 75% 29.93 in 10.0 mi SSW 5.8 mph - N/A   Clear
9:49 AM 49.1 °F - 39.9 °F 71% 29.93 in 10.0 mi SSW 6.9 mph - N/A   Clear
10:09 AM 51.8 °F - 41.4 °F 68% 29.93 in 10.0 mi SSW 10.4 mph - N/A   Clear
10:28 AM 51.8 °F - 41.0 °F 67% 29.93 in 10.0 mi SSW 6.9 mph - N/A   Clear
10:49 AM 54.1 °F - 42.6 °F 65% 29.92 in 10.0 mi South 5.8 mph - N/A   Clear
11:09 AM 54.1 °F - 42.4 °F 65% 29.90 in 10.0 mi South 6.9 mph - N/A   Clear
11:29 AM 56.3 °F - 42.8 °F 61% 29.90 in 10.0 mi South 8.1 mph - N/A   Clear
11:49 AM 56.7 °F - 43.0 °F 60% 29.89 in 10.0 mi South 10.4 mph - N/A   Clear
12:08 PM 56.7 °F - 42.6 °F 59% 29.88 in 10.0 mi South 10.4 mph - N/A   Clear
12:29 PM 57.4 °F - 42.3 °F 57% 29.86 in 10.0 mi South 8.1 mph - N/A   Clear
12:48 PM 57.0 °F - 41.9 °F 57% 29.86 in 10.0 mi SSE 5.8 mph - N/A   Clear
1:09 PM 59.2 °F - 43.3 °F 56% 29.85 in 10.0 mi South 8.1 mph - N/A   Clear
1:29 PM 59.2 °F - 42.6 °F 54% 29.84 in 10.0 mi SSE 8.1 mph - N/A   Clear
1:49 PM 59.5 °F - 42.1 °F 52% 29.84 in 10.0 mi SSE 6.9 mph - N/A   Clear
2:09 PM 61.7 °F - 42.1 °F 49% 29.83 in 10.0 mi SSE 8.1 mph - N/A   Clear
2:28 PM 62.2 °F - 41.9 °F 47% 29.81 in 10.0 mi SSE 10.4 mph - N/A   Clear
2:49 PM 63.0 °F - 41.5 °F 45% 29.81 in 10.0 mi SSE 10.4 mph - N/A   Clear
3:08 PM 61.9 °F - 41.5 °F 47% 29.80 in 10.0 mi SE 6.9 mph - N/A   Clear
3:29 PM 61.9 °F - 41.9 °F 48% 29.79 in 10.0 mi SE 8.1 mph - N/A   Clear
3:54 PM 60.4 °F - 43.0 °F 53% 29.78 in 10.0 mi ESE 8.1 mph - N/A   Clear
4:09 PM 59.2 °F - 42.8 °F 55% 29.78 in 10.0 mi ESE 8.1 mph - N/A   Clear
4:29 PM 59.2 °F - 43.7 °F 57% 29.77 in 10.0 mi SE 5.8 mph - N/A   Clear
4:49 PM 56.7 °F - 41.5 °F 57% 29.77 in 10.0 mi SE 4.6 mph - N/A   Clear
5:09 PM 57.7 °F - 40.8 °F 53% 29.77 in 10.0 mi SSE 3.5 mph - N/A   Clear
5:28 PM 59.2 °F - 41.9 °F 53% 29.76 in 10.0 mi South 6.9 mph - N/A   Clear
5:49 PM 59.2 °F - 41.9 °F 53% 29.76 in 10.0 mi South 9.2 mph - N/A   Clear
6:09 PM 59.2 °F - 42.8 °F 55% 29.75 in 10.0 mi South 6.9 mph - N/A   Clear
6:29 PM 56.7 °F - 42.4 °F 59% 29.74 in 10.0 mi South 4.6 mph - N/A   Clear
6:49 PM 56.7 °F - 42.3 °F 59% 29.74 in 10.0 mi SSE 5.8 mph - N/A   Clear
7:08 PM 56.7 °F - 43.3 °F 61% 29.73 in 10.0 mi SSE 5.8 mph - N/A   Clear
7:28 PM 56.7 °F - 44.1 °F 63% 29.73 in 10.0 mi SSE 6.9 mph - N/A   Clear
7:48 PM 57.2 °F - 44.6 °F 63% 29.72 in 10.0 mi South 11.5 mph - N/A   Clear
8:08 PM 57.6 °F - 44.8 °F 62% 29.71 in 10.0 mi South 12.7 mph 18.4 mph N/A   Clear
8:28 PM 56.7 °F - 44.6 °F 64% 29.70 in 10.0 mi South 12.7 mph 18.4 mph N/A   Clear
8:49 PM 57.0 °F - 44.8 °F 64% 29.70 in 10.0 mi South 12.7 mph 17.3 mph N/A   Clear
9:09 PM 56.7 °F - 44.8 °F 64% 29.69 in 10.0 mi South 10.4 mph - N/A   Clear
9:29 PM 56.7 °F - 44.8 °F 64% 29.69 in 10.0 mi South 11.5 mph - N/A   Clear
9:48 PM 56.7 °F - 45.0 °F 65% 29.68 in 10.0 mi South 12.7 mph 19.6 mph N/A   Clear
10:08 PM 56.7 °F - 45.5 °F 66% 29.67 in 10.0 mi South 11.5 mph - N/A   Clear
10:29 PM 56.3 °F - 45.5 °F 67% 29.67 in 10.0 mi South 12.7 mph 19.6 mph N/A   Clear
10:48 PM 54.1 °F - 44.1 °F 69% 29.67 in 10.0 mi South 10.4 mph 16.1 mph N/A   Clear
11:09 PM 54.1 °F - 44.6 °F 70% 29.66 in 10.0 mi South 9.2 mph - N/A   Clear
11:29 PM 54.1 °F - 45.0 °F 71% 29.66 in 10.0 mi South 9.2 mph - N/A   Clear
11:49 PM 54.1 °F - 45.5 °F 73% 29.65 in 10.0 mi South 8.1 mph - N/A   Clear